Atlantic City, NJ

5:06 PM EDT on September 16, 2019 (GMT -0400)
Atlantic City International

Weather History for KACY - August, 2019

Change the Weather History Date:

Sunday, August 25, 2019

  Actual Average Record
Temperature  
Mean Temperature 67 °F 73 °F  
Max Temperature 77 °F 83 °F 97 °F (1968)
Min Temperature 57 °F 64 °F 47 °F (1987)
Degree Days  
Heating Degree Days 0 0  
Month to date heating degree days 0 0  
Since 1 June heating degree days 5 27  
Since 1 July heating degree days 0 0  
Cooling Degree Days 2 8  
Month to date cooling degree days 315 249  
Year to date cooling degree days 1136 863  
Since 1 June cooling degree days 1036 799  
Growing Degree Days 17 (Base 50)    
Moisture  
Dew Point 59 °F    
Average Humidity 72    
Maximum Humidity 87    
Minimum Humidity 54    
Precipitation  
Precipitation 0.01 in 0.12 in 4.33 in (1958)
Month to date precipitation 1.94 3.45  
Year to date precipitation 30.06 27.56  
Snow  
Snow 0.00 in 0.00 in 0.00 in ()
Month to date snowfall 0.0 0.0  
Since 1 June snowfall 0.0 0.0  
Since 1 July snowfall 0.0 0.0  
Snow Depth 0.00 in    
Sea Level Pressure  
Sea Level Pressure 30.19 in    
Wind  
Wind Speed 9 mph ()    
Max Wind Speed 24 mph    
Max Gust Speed 33 mph    
Visibility 9.9 miles    
Events Rain    
T = Trace of Precipitation, MM = Missing Value Source: Averaged Metar Reports

Daily Weather History Graph

Daily Weather History Graph

Search for Another Location

Airport or City:

Astronomy

Aug. 25, 2019 Rise Set
Actual Time 6:19 AM EDT 7:40 PM EDT
Civil Twilight 5:51 AM EDT 8:08 PM EDT
Nautical Twilight 5:18 AM EDT 8:41 PM EDT
Astronomical Twilight 4:43 AM EDT 9:16 PM EDT
Moon 12:53 AM EDT (8/25) 3:57 PM EDT (8/25)
Length of Visible Light 14h 16m
Length of Day
13h 20m
Waning Crescent, 29% of the Moon is Illuminated
Aug 25
Waning Crescent
Aug 30
New
Sep 5
First Quarter
Sep 14
Full
Sep 21
Last Quarter

Hourly Weather History & Observations

Time (EDT) Temp. Dew Point Humidity Pressure Visibility Wind Dir Wind Speed Gust Speed Precip Events Conditions
12:54 AM 59.0 °F 53.1 °F 81% 30.21 in 10.0 mi NE 4.6 mph - N/A   Clear
1:54 AM 57.9 °F 53.1 °F 84% 30.19 in 10.0 mi North 4.6 mph - N/A   Clear
2:54 AM 60.1 °F 54.0 °F 80% 30.19 in 10.0 mi North 5.8 mph - N/A   Scattered Clouds
3:54 AM 61.0 °F 55.0 °F 81% 30.18 in 9.0 mi North 4.6 mph - 0.00 in Rain Light Rain
4:54 AM 63.0 °F 57.9 °F 84% 30.17 in 10.0 mi North 8.1 mph - 0.00 in   Overcast
5:54 AM 63.0 °F 57.9 °F 84% 30.17 in 10.0 mi North 8.1 mph - N/A   Mostly Cloudy
6:54 AM 64.0 °F 59.0 °F 84% 30.18 in 10.0 mi NNE 8.1 mph - 0.01 in   Mostly Cloudy
7:54 AM 64.9 °F 61.0 °F 87% 30.20 in 9.0 mi North 9.2 mph - 0.00 in Rain Light Rain
8:54 AM 68.0 °F 62.1 °F 81% 30.20 in 10.0 mi NNE 13.8 mph - 0.00 in   Mostly Cloudy
9:54 AM 72.0 °F 61.0 °F 68% 30.20 in 10.0 mi NE 18.4 mph 27.6 mph N/A   Scattered Clouds
10:54 AM 71.1 °F 60.1 °F 68% 30.22 in 10.0 mi ENE 17.3 mph 27.6 mph N/A   Overcast
11:54 AM 73.9 °F 60.1 °F 62% 30.21 in 10.0 mi ENE 16.1 mph 23.0 mph N/A   Overcast
12:54 PM 73.0 °F 59.0 °F 61% 30.21 in 10.0 mi NE 13.8 mph - N/A   Mostly Cloudy
1:54 PM 73.0 °F 57.9 °F 59% 30.20 in 10.0 mi NE 17.3 mph 31.1 mph N/A   Overcast
2:54 PM 75.0 °F 57.9 °F 55% 30.18 in 10.0 mi NE 18.4 mph 28.8 mph N/A   Mostly Cloudy
3:54 PM 73.0 °F 57.9 °F 59% 30.18 in 10.0 mi NE 16.1 mph 24.2 mph N/A   Mostly Cloudy
4:54 PM 72.0 °F 57.9 °F 61% 30.18 in 10.0 mi NE 18.4 mph 27.6 mph N/A   Mostly Cloudy
5:20 PM 73.9 °F 59.0 °F 59% 30.19 in 10.0 mi NE 15.0 mph 24.2 mph N/A   Mostly Cloudy
5:28 PM 73.0 °F 59.0 °F 61% 30.19 in 10.0 mi NE 18.4 mph 31.1 mph N/A   Mostly Cloudy
5:54 PM 73.0 °F 59.0 °F 61% 30.18 in 10.0 mi ENE 20.7 mph 33.4 mph N/A   Partly Cloudy
6:54 PM 71.1 °F 59.0 °F 66% 30.19 in 10.0 mi ENE 11.5 mph 25.3 mph N/A   Scattered Clouds
7:54 PM 69.1 °F 59.0 °F 70% 30.18 in 10.0 mi NE 12.7 mph - N/A   Mostly Cloudy
8:54 PM 68.0 °F 60.1 °F 76% 30.19 in 10.0 mi NE 9.2 mph 18.4 mph N/A   Overcast
9:54 PM 68.0 °F 60.1 °F 76% 30.18 in 10.0 mi NE 12.7 mph - N/A   Scattered Clouds
10:54 PM 68.0 °F 60.1 °F 76% 30.19 in 10.0 mi NE 10.4 mph 20.7 mph N/A   Scattered Clouds
11:06 PM 68.0 °F 60.1 °F 76% 30.19 in 10.0 mi NE 12.7 mph - N/A   Mostly Cloudy
11:21 PM 68.0 °F 60.1 °F 76% 30.19 in 10.0 mi NE 9.2 mph 24.2 mph N/A   Scattered Clouds
11:54 PM 66.9 °F 60.1 °F 79% 30.17 in 10.0 mi NNE 9.2 mph - N/A   Partly Cloudy